| time (UTC) | temp C | wind direction | speed KPH | gust KPH | rain 1hr cm | rain 24hr cm | rain mn cm | humidity % | barometer mb |
| 20260507121552 | 10 | 0 | 0.0 | 0.0 | 0.00 | 0.00 | 0.00 | 84 | 1018.6 |
| 20260507121519 | 10 | 141 | 0.0 | 0.0 | 0.00 | 0.00 | 0.00 | 84 | 1013.9 |
| 20260507120055 | 10 | 0 | 0.0 | 0.0 | 0.00 | 0.00 | 0.00 | 83 | 1018.7 |
| 20260507120018 | 10 | 141 | 0.0 | 0.0 | 0.00 | 0.00 | 0.00 | 84 | 1013.9 |
| 20260507114557 | 10 | 0 | 0.0 | 0.0 | 0.00 | 0.00 | 0.00 | 83 | 1018.7 |
| 20260507114525 | 10 | 141 | 0.0 | 0.0 | 0.00 | 0.00 | 0.00 | 83 | 1014.0 |
| 20260507113055 | 10 | 0 | 0.0 | 0.0 | 0.00 | 0.00 | 0.00 | 81 | 1018.7 |
| 20260507113016 | 10 | 141 | 0.0 | 0.0 | 0.00 | 0.00 | 0.00 | 82 | 1014.1 |
| 20260507111552 | 10 | 0 | 0.0 | 0.0 | 0.00 | 0.00 | 0.00 | 81 | 1018.8 |
| 20260507111521 | 10 | 141 | 0.0 | 0.0 | 0.00 | 0.00 | 0.00 | 81 | 1014.3 |
| 20260507110057 | 10 | 0 | 0.0 | 0.0 | 0.00 | 0.00 | 0.00 | 81 | 1018.8 |
| 20260507110014 | 10 | 141 | 0.0 | 0.0 | 0.00 | 0.00 | 0.00 | 81 | 1014.4 |
| 20260507104559 | 11 | 0 | 0.0 | 0.0 | 0.00 | 0.00 | 0.00 | 80 | 1019.0 |
| 20260507104512 | 11 | 141 | 0.0 | 0.0 | 0.00 | 0.00 | 0.00 | 81 | 1014.4 |
| 20260507103058 | 11 | 0 | 0.0 | 0.0 | 0.00 | 0.00 | 0.00 | 80 | 1019.0 |
| 20260507103010 | 11 | 141 | 0.0 | 0.0 | 0.00 | 0.00 | 0.00 | 80 | 1014.5 |
| 20260507101554 | 11 | 0 | 0.0 | 0.0 | 0.00 | 0.00 | 0.00 | 79 | 1019.2 |
| 20260507101516 | 11 | 141 | 0.0 | 0.0 | 0.00 | 0.00 | 0.00 | 80 | 1014.5 |
| 20260507100059 | 11 | 0 | 0.0 | 0.0 | 0.00 | 0.00 | 0.00 | 79 | 1019.2 |
| 20260507100006 | 11 | 141 | 0.0 | 0.0 | 0.00 | 0.00 | 0.00 | 79 | 1014.5 |
| 20260507094553 | 11 | 0 | 0.0 | 0.0 | 0.00 | 0.00 | 0.00 | 79 | 1019.2 |
| 20260507094505 | 11 | 141 | 0.0 | 0.0 | 0.00 | 0.00 | 0.00 | 79 | 1014.5 |
| 20260507093052 | 11 | 0 | 0.0 | 0.0 | 0.00 | 0.00 | 0.00 | 78 | 1019.5 |
| 20260507093004 | 11 | 141 | 0.0 | 0.0 | 0.00 | 0.00 | 0.00 | 78 | 1014.7 |
| 20260507091551 | 11 | 0 | 0.0 | 0.0 | 0.00 | 0.00 | 0.00 | 77 | 1019.6 |
| 20260507091502 | 11 | 141 | 0.0 | 0.0 | 0.00 | 0.00 | 0.00 | 78 | 1014.9 |
| 20260507090004 | 12 | 141 | 0.0 | 0.0 | 0.00 | 0.00 | 0.00 | 77 | 1015.0 |
| 20260507084603 | 12 | 141 | 0.0 | 0.0 | 0.00 | 0.00 | 0.00 | 76 | 1015.1 |
| 20260507084555 | 12 | 0 | 0.0 | 0.0 | 0.00 | 0.00 | 0.00 | 76 | 1019.7 |
| 20260507083057 | 12 | 141 | 0.0 | 0.0 | 0.00 | 0.00 | 0.00 | 76 | 1015.1 |
| 20260507083047 | 12 | 0 | 0.0 | 0.0 | 0.00 | 0.00 | 0.00 | 75 | 1019.9 |
| 20260507081556 | 12 | 0 | 0.0 | 0.0 | 0.00 | 0.00 | 0.00 | 75 | 1020.1 |
| 20260507080053 | 12 | 141 | 0.0 | 0.0 | 0.00 | 0.00 | 0.00 | 75 | 1015.2 |
| 20260507074553 | 12 | 0 | 0.0 | 0.0 | 0.00 | 0.00 | 0.00 | 74 | 1020.0 |
| 20260507073053 | 13 | 0 | 0.0 | 0.0 | 0.00 | 0.00 | 0.00 | 74 | 1020.0 |
| 20260507073049 | 13 | 141 | 0.0 | 0.0 | 0.00 | 0.00 | 0.00 | 74 | 1015.4 |
| 20260507071553 | 13 | 0 | 0.0 | 0.0 | 0.00 | 0.00 | 0.00 | 73 | 1020.2 |
| 20260507071547 | 13 | 141 | 0.0 | 0.0 | 0.00 | 0.00 | 0.00 | 73 | 1015.6 |
| 20260507070058 | 13 | 141 | 0.0 | 0.0 | 0.00 | 0.00 | 0.00 | 72 | 1015.6 |
| 20260507064626 | 13 | 0 | 0.0 | 0.0 | 0.00 | 0.00 | 0.00 | 71 | 1020.3 |
| 20260507064546 | 13 | 141 | 0.0 | 0.0 | 0.00 | 0.00 | 0.00 | 72 | 1015.6 |
| 20260507063053 | 14 | 0 | 0.0 | 0.0 | 0.00 | 0.00 | 0.00 | 70 | 1020.2 |
| 20260507063046 | 14 | 141 | 0.0 | 0.0 | 0.00 | 0.00 | 0.00 | 71 | 1015.5 |
| 20260507061552 | 14 | 0 | 0.0 | 0.0 | 0.00 | 0.00 | 0.00 | 69 | 1020.1 |
| 20260507061545 | 14 | 141 | 0.0 | 0.0 | 0.00 | 0.00 | 0.00 | 70 | 1015.5 |
| 20260507060110 | 15 | 0 | 0.0 | 0.0 | 0.00 | 0.00 | 0.00 | 69 | 1020.1 |
| 20260507060056 | 15 | 141 | 0.0 | 0.0 | 0.00 | 0.00 | 0.00 | 69 | 1015.5 |
| 20260507054557 | 15 | 0 | 0.0 | 0.0 | 0.00 | 0.00 | 0.00 | 68 | 1020.2 |
| 20260507054547 | 15 | 141 | 0.0 | 0.0 | 0.00 | 0.00 | 0.00 | 69 | 1015.6 |
| 20260507053058 | 15 | 0 | 0.0 | 0.0 | 0.00 | 0.00 | 0.00 | 68 | 1020.3 |
| 20260507053050 | 15 | 141 | 0.0 | 0.0 | 0.00 | 0.00 | 0.00 | 68 | 1015.7 |
| 20260507051605 | 15 | 0 | 0.0 | 0.0 | 0.00 | 0.00 | 0.00 | 67 | 1020.2 |
| 20260507051543 | 15 | 141 | 0.0 | 0.0 | 0.00 | 0.00 | 0.00 | 68 | 1015.6 |
| 20260507050051 | 15 | 0 | 0.0 | 3.2 | 0.00 | 0.00 | 0.00 | 67 | 1020.2 |
| 20260507050044 | 15 | 141 | 0.0 | 0.0 | 0.00 | 0.00 | 0.00 | 67 | 1015.6 |
| 20260507044556 | 16 | 0 | 0.0 | 1.6 | 0.00 | 0.00 | 0.00 | 67 | 1020.1 |
| 20260507044542 | 16 | 141 | 0.0 | 1.6 | 0.00 | 0.00 | 0.00 | 68 | 1015.5 |
| 20260507043055 | 16 | 141 | 0.0 | 4.8 | 0.00 | 0.00 | 0.00 | 67 | 1019.9 |
| 20260507043042 | 16 | 141 | 0.0 | 4.8 | 0.00 | 0.00 | 0.00 | 67 | 1015.4 |
| 20260507041559 | 16 | 0 | 0.0 | 3.2 | 0.00 | 0.00 | 0.00 | 66 | 1019.9 |
| 20260507041540 | 16 | 141 | 0.0 | 3.2 | 0.00 | 0.00 | 0.00 | 66 | 1015.3 |
| 20260507040057 | 16 | 0 | 0.0 | 3.2 | 0.00 | 0.00 | 0.00 | 65 | 1019.8 |
| 20260507040042 | 16 | 141 | 0.0 | 3.2 | 0.00 | 0.00 | 0.00 | 65 | 1015.1 |
| 20260507034552 | 17 | 141 | 0.0 | 4.8 | 0.00 | 0.00 | 0.00 | 64 | 1014.9 |
| 20260507033053 | 17 | 0 | 0.0 | 4.8 | 0.00 | 0.00 | 0.00 | 63 | 1019.3 |
| 20260507033043 | 17 | 141 | 0.0 | 4.8 | 0.00 | 0.00 | 0.00 | 63 | 1014.7 |
| 20260507031555 | 17 | 0 | 0.0 | 4.8 | 0.00 | 0.00 | 0.00 | 62 | 1019.2 |
| 20260507031539 | 17 | 141 | 0.0 | 4.8 | 0.00 | 0.00 | 0.00 | 63 | 1014.6 |
| 20260507030052 | 18 | 0 | 0.0 | 6.4 | 0.00 | 0.00 | 0.00 | 61 | 1018.9 |
| 20260507030040 | 18 | 141 | 0.0 | 6.4 | 0.00 | 0.00 | 0.00 | 62 | 1014.5 |
| 20260507024556 | 18 | 140 | 1.6 | 6.4 | 0.00 | 0.00 | 0.00 | 61 | 1018.8 |
| 20260507024551 | 18 | 140 | 1.6 | 6.4 | 0.00 | 0.00 | 0.00 | 61 | 1014.4 |
| 20260507023053 | 19 | 0 | 0.0 | 9.7 | 0.00 | 0.00 | 0.00 | 59 | 1018.5 |
| 20260507023037 | 19 | 137 | 0.0 | 8.0 | 0.00 | 0.00 | 0.00 | 60 | 1014.2 |
| 20260507021555 | 20 | 196 | 0.0 | 9.7 | 0.00 | 0.00 | 0.00 | 59 | 1018.5 |
| 20260507021545 | 20 | 196 | 0.0 | 9.7 | 0.00 | 0.00 | 0.00 | 59 | 1014.1 |
| 20260507020103 | 20 | 0 | 1.6 | 9.7 | 0.00 | 0.00 | 0.00 | 58 | 1018.4 |
| 20260507020036 | 20 | 186 | 1.6 | 6.4 | 0.00 | 0.00 | 0.00 | 58 | 1014.0 |
| 20260507014557 | 20 | 209 | 0.0 | 9.7 | 0.00 | 0.00 | 0.00 | 56 | 1018.2 |
| 20260507014541 | 20 | 209 | 0.0 | 9.7 | 0.00 | 0.00 | 0.00 | 56 | 1013.8 |
| 20260507013050 | 21 | 0 | 1.6 | 11.3 | 0.00 | 0.00 | 0.00 | 55 | 1018.1 |
| 20260507013035 | 21 | 216 | 0.0 | 11.3 | 0.00 | 0.00 | 0.00 | 55 | 1013.6 |
| 20260507011554 | 21 | 134 | 1.6 | 14.5 | 0.00 | 0.00 | 0.00 | 53 | 1018.0 |
| 20260507011541 | 21 | 132 | 3.2 | 9.7 | 0.00 | 0.00 | 0.00 | 54 | 1013.6 |
| 20260507010110 | 22 | 0 | 1.6 | 12.9 | 0.00 | 0.00 | 0.00 | 53 | 1017.7 |
| 20260507010034 | 22 | 135 | 0.0 | 11.3 | 0.00 | 0.00 | 0.00 | 53 | 1013.5 |
| 20260507004602 | 22 | 221 | 0.0 | 9.7 | 0.00 | 0.00 | 0.00 | 51 | 1017.8 |
| 20260507004533 | 22 | 230 | 1.6 | 9.7 | 0.00 | 0.00 | 0.00 | 52 | 1013.4 |
| 20260507003052 | 23 | 206 | 3.2 | 9.7 | 0.00 | 0.00 | 0.00 | 50 | 1017.6 |
| 20260507003032 | 23 | 206 | 1.6 | 9.7 | 0.00 | 0.00 | 0.00 | 50 | 1013.1 |
| 20260507001603 | 23 | 221 | 3.2 | 9.7 | 0.00 | 0.00 | 0.00 | 49 | 1017.4 |
| 20260507001540 | 23 | 222 | 3.2 | 9.7 | 0.00 | 0.00 | 0.00 | 49 | 1013.0 |
| 20260507000056 | 24 | 210 | 1.6 | 12.9 | 0.00 | 0.00 | 0.00 | 49 | 1017.3 |
| 20260507000031 | 24 | 210 | 1.6 | 12.9 | 0.00 | 0.00 | 0.00 | 49 | 1012.9 |
| 20260506234600 | 25 | 218 | 1.6 | 11.3 | 0.00 | 0.00 | 0.00 | 47 | 1017.1 |
| 20260506234530 | 25 | 218 | 1.6 | 11.3 | 0.00 | 0.00 | 0.00 | 47 | 1012.8 |
| 20260506233058 | 25 | 221 | 1.6 | 12.9 | 0.00 | 0.00 | 0.00 | 46 | 1017.0 |
| 20260506233029 | 25 | 221 | 1.6 | 12.9 | 0.00 | 0.00 | 0.00 | 46 | 1012.9 |
| 20260506231610 | 25 | 222 | 3.2 | 9.7 | 0.00 | 0.00 | 0.00 | 44 | 1017.2 |
| 20260506231528 | 25 | 223 | 1.6 | 9.7 | 0.00 | 0.00 | 0.00 | 45 | 1012.9 |
| 20260506230109 | 26 | 0 | 0.0 | 11.3 | 0.00 | 0.00 | 0.00 | 41 | 1017.0 |
| 20260506230028 | 26 | 213 | 0.0 | 11.3 | 0.00 | 0.00 | 0.00 | 42 | 1012.9 |
| 20260506224553 | 27 | 223 | 0.0 | 11.3 | 0.00 | 0.00 | 0.00 | 40 | 1017.0 |
| 20260506224527 | 27 | 221 | 1.6 | 11.3 | 0.00 | 0.00 | 0.00 | 40 | 1013.1 |
| 20260506223056 | 27 | 0 | 0.0 | 9.7 | 0.00 | 0.00 | 0.00 | 38 | 1016.9 |
| 20260506223025 | 27 | 202 | 0.0 | 9.7 | 0.00 | 0.00 | 0.00 | 38 | 1013.1 |
| 20260506221617 | 27 | 142 | 3.2 | 16.1 | 0.00 | 0.00 | 0.00 | 34 | 1016.9 |
| 20260506221524 | 28 | 144 | 3.2 | 14.5 | 0.00 | 0.00 | 0.00 | 35 | 1013.2 |
| 20260506220110 | 28 | 0 | 0.0 | 8.0 | 0.00 | 0.00 | 0.00 | 31 | 1017.1 |
| 20260506220023 | 28 | 156 | 0.0 | 6.4 | 0.00 | 0.00 | 0.00 | 32 | 1013.4 |
| 20260506214554 | 28 | 0 | 0.0 | 4.8 | 0.00 | 0.00 | 0.00 | 31 | 1017.2 |
| 20260506214522 | 28 | 234 | 0.0 | 4.8 | 0.00 | 0.00 | 0.00 | 34 | 1013.7 |
| 20260506213105 | 28 | 237 | 0.0 | 11.3 | 0.00 | 0.00 | 0.00 | 33 | 1017.6 |
| 20260506213020 | 28 | 237 | 1.6 | 9.7 | 0.00 | 0.00 | 0.00 | 33 | 1013.9 |
| 20260506211559 | 27 | 0 | 0.0 | 6.4 | 0.00 | 0.00 | 0.00 | 34 | 1017.8 |
| 20260506211516 | 27 | 140 | 0.0 | 3.2 | 0.00 | 0.00 | 0.00 | 35 | 1014.1 |
| 20260506210104 | 27 | 0 | 0.0 | 6.4 | 0.00 | 0.00 | 0.00 | 35 | 1017.9 |
| 20260506210016 | 27 | 144 | 0.0 | 6.4 | 0.00 | 0.00 | 0.00 | 35 | 1014.3 |
| 20260506204605 | 27 | 0 | 0.0 | 3.2 | 0.00 | 0.00 | 0.00 | 35 | 1018.0 |
| 20260506204515 | 27 | 299 | 0.0 | 3.2 | 0.00 | 0.00 | 0.00 | 35 | 1014.4 |
| 20260506203053 | 26 | 300 | 0.0 | 4.8 | 0.00 | 0.00 | 0.00 | 35 | 1018.2 |
| 20260506203013 | 26 | 300 | 0.0 | 4.8 | 0.00 | 0.00 | 0.00 | 37 | 1014.6 |
| 20260506201554 | 26 | 0 | 0.0 | 3.2 | 0.00 | 0.00 | 0.00 | 40 | 1018.4 |
| 20260506201511 | 26 | 299 | 0.0 | 3.2 | 0.00 | 0.00 | 0.00 | 40 | 1014.9 |
| 20260506200052 | 25 | 0 | 0.0 | 11.3 | 0.00 | 0.00 | 0.00 | 38 | 1018.6 |
| 20260506200010 | 25 | 300 | 0.0 | 9.7 | 0.00 | 0.00 | 0.00 | 39 | 1015.1 |
| 20260506194556 | 25 | 0 | 0.0 | 3.2 | 0.00 | 0.00 | 0.00 | 37 | 1018.8 |
| 20260506194503 | 25 | 236 | 0.0 | 3.2 | 0.00 | 0.00 | 0.00 | 38 | 1015.5 |
| 20260506193059 | 25 | 236 | 0.0 | 6.4 | 0.00 | 0.00 | 0.00 | 41 | 1015.6 |
| 20260506193055 | 25 | 0 | 0.0 | 6.4 | 0.00 | 0.00 | 0.00 | 40 | 1019.1 |
| 20260506191604 | 24 | 25 | 0.0 | 3.2 | 0.00 | 0.00 | 0.00 | 42 | 1019.2 |
| 20260506191557 | 24 | 25 | 0.0 | 3.2 | 0.00 | 0.00 | 0.00 | 42 | 1016.0 |
| 20260506190058 | 24 | 0 | 0.0 | 4.8 | 0.00 | 0.00 | 0.00 | 45 | 1019.5 |
| 20260506190052 | 24 | 26 | 0.0 | 4.8 | 0.00 | 0.00 | 0.00 | 45 | 1016.1 |
| 20260506184612 | 23 | 0 | 0.0 | 3.2 | 0.00 | 0.00 | 0.00 | 45 | 1019.6 |
| 20260506184549 | 23 | 28 | 0.0 | 3.2 | 0.00 | 0.00 | 0.00 | 45 | 1016.2 |
| 20260506183050 | 22 | 0 | 0.0 | 4.8 | 0.00 | 0.00 | 0.00 | 44 | 1019.8 |
| 20260506183045 | 22 | 30 | 0.0 | 3.2 | 0.00 | 0.00 | 0.00 | 45 | 1016.4 |
| 20260506181554 | 22 | 0 | 0.0 | 3.2 | 0.00 | 0.00 | 0.00 | 44 | 1019.9 |
| 20260506181540 | 22 | 30 | 0.0 | 3.2 | 0.00 | 0.00 | 0.00 | 44 | 1016.7 |
| 20260506180052 | 21 | 30 | 0.0 | 4.8 | 0.00 | 0.00 | 0.00 | 47 | 1020.1 |
| 20260506180038 | 21 | 30 | 0.0 | 3.2 | 0.00 | 0.00 | 0.00 | 48 | 1016.7 |
| 20260506174549 | 21 | 82 | 0.0 | 3.2 | 0.00 | 0.00 | 0.00 | 50 | 1020.0 |
| 20260506174535 | 21 | 101 | 0.0 | 3.2 | 0.00 | 0.00 | 0.00 | 50 | 1016.7 |
| 20260506173052 | 20 | 0 | 0.0 | 4.8 | 0.00 | 0.00 | 0.00 | 48 | 1020.0 |
| 20260506173032 | 20 | 107 | 0.0 | 4.8 | 0.00 | 0.00 | 0.00 | 49 | 1016.8 |
| 20260506171606 | 20 | 0 | 0.0 | 3.2 | 0.00 | 0.00 | 0.00 | 55 | 1020.0 |
| 20260506171529 | 20 | 107 | 0.0 | 1.6 | 0.00 | 0.00 | 0.00 | 54 | 1016.8 |
| 20260506170059 | 18 | 0 | 0.0 | 6.4 | 0.00 | 0.00 | 0.00 | 56 | 1019.9 |
| 20260506170024 | 18 | 107 | 0.0 | 6.4 | 0.00 | 0.00 | 0.00 | 57 | 1016.8 |
| 20260506164551 | 18 | 105 | 0.0 | 3.2 | 0.00 | 0.00 | 0.00 | 56 | 1020.0 |
| 20260506164521 | 18 | 105 | 0.0 | 3.2 | 0.00 | 0.00 | 0.00 | 56 | 1016.8 |
| 20260506163107 | 17 | 30 | 0.0 | 4.8 | 0.00 | 0.00 | 0.00 | 61 | 1019.9 |
| 20260506163014 | 17 | 30 | 0.0 | 4.8 | 0.00 | 0.00 | 0.00 | 62 | 1016.8 |
| 20260506161557 | 16 | 0 | 0.0 | 1.6 | 0.00 | 0.00 | 0.00 | 70 | 1019.8 |
| 20260506161510 | 16 | 29 | 0.0 | 1.6 | 0.00 | 0.00 | 0.00 | 71 | 1016.8 |
| 20260506160101 | 14 | 0 | 0.0 | 3.2 | 0.00 | 0.00 | 0.00 | 80 | 1019.8 |
| 20260506160006 | 13 | 29 | 0.0 | 3.2 | 0.00 | 0.00 | 0.00 | 82 | 1016.8 |
| 20260506154603 | 12 | 29 | 0.0 | 1.6 | 0.00 | 0.00 | 0.00 | 90 | 1016.8 |
| 20260506154554 | 12 | 0 | 0.0 | 1.6 | 0.00 | 0.00 | 0.00 | 90 | 1019.8 |
| 20260506153055 | 11 | 29 | 0.0 | 0.0 | 0.00 | 0.00 | 0.00 | 92 | 1016.8 |
| 20260506153053 | 11 | 0 | 0.0 | 0.0 | 0.00 | 0.00 | 0.00 | 91 | 1019.7 |
| 20260506151558 | 11 | 0 | 0.0 | 0.0 | 0.00 | 0.00 | 0.00 | 91 | 1019.8 |
| 20260506151552 | 11 | 29 | 0.0 | 0.0 | 0.00 | 0.00 | 0.00 | 92 | 1016.9 |
| 20260506150059 | 10 | 28 | 0.0 | 1.6 | 0.00 | 0.00 | 0.00 | 92 | 1016.9 |
| 20260506150056 | 10 | 0 | 0.0 | 1.6 | 0.00 | 0.00 | 0.00 | 91 | 1019.8 |
| 20260506144603 | 8 | 28 | 0.0 | 0.0 | 0.00 | 0.00 | 0.00 | 91 | 1016.9 |
| 20260506143101 | 8 | 0 | 0.0 | 0.0 | 0.00 | 0.00 | 0.00 | 89 | 1019.7 |
| 20260506143053 | 8 | 28 | 0.0 | 0.0 | 0.00 | 0.00 | 0.00 | 90 | 1016.8 |
| 20260506141554 | 7 | 0 | 0.0 | 0.0 | 0.00 | 0.00 | 0.00 | 88 | 1019.7 |
| 20260506141549 | 7 | 28 | 0.0 | 0.0 | 0.00 | 0.00 | 0.00 | 89 | 1016.9 |
| 20260506140105 | 7 | 0 | 0.0 | 0.0 | 0.00 | 0.00 | 0.00 | 87 | 1019.6 |
| 20260506134553 | 6 | 0 | 0.0 | 0.0 | 0.00 | 0.00 | 0.00 | 86 | 1019.3 |
| 20260506134544 | 6 | 28 | 0.0 | 0.0 | 0.00 | 0.00 | 0.00 | 87 | 1016.6 |
| 20260506133056 | 6 | 0 | 0.0 | 0.0 | 0.00 | 0.00 | 0.00 | 86 | 1019.3 |
| 20260506133047 | 6 | 28 | 0.0 | 0.0 | 0.00 | 0.00 | 0.00 | 86 | 1016.4 |
| 20260506131605 | 7 | 0 | 0.0 | 0.0 | 0.00 | 0.00 | 0.00 | 86 | 1019.1 |
| 20260506131544 | 7 | 178 | 0.0 | 0.0 | 0.00 | 0.00 | 0.00 | 86 | 1016.4 |
| 20260506130059 | 7 | 0 | 0.0 | 0.0 | 0.00 | 0.00 | 0.00 | 86 | 1019.0 |
| 20260506130052 | 7 | 178 | 0.0 | 0.0 | 0.00 | 0.00 | 0.00 | 86 | 1016.3 |
| 20260506124557 | 7 | 0 | 0.0 | 0.0 | 0.00 | 0.00 | 0.00 | 85 | 1018.9 |
| 20260506124538 | 7 | 178 | 0.0 | 0.0 | 0.00 | 0.00 | 0.00 | 86 | 1016.2 |
| 20260506123053 | 7 | 0 | 0.0 | 0.0 | 0.00 | 0.00 | 0.00 | 85 | 1018.6 |
| 20260506123040 | 7 | 178 | 0.0 | 0.0 | 0.00 | 0.00 | 0.00 | 86 | 1016.0 |